Weather observations for the past three days for
Portage, Portage Glacier
Imperial (Metric)
Date Time (akdt) Wind (mph) Vis. (mi.) Weather Sky Cond. Temperature (ºF) Relative Humidity Wind Chill (°F) Heat Index (°F) Pressure Precipitation (in)
Air Dwpt 6 hour altimeter (in) sea level (mb) 1 hr 3 hr 6 hr
Max. Min.
16 10:53 Vrbl 5 10.00 Fair CLR 60.1 46.9 62% 30.13 1020.3
16 09:53 E 6 10.00 Fair CLR 57 46.9 57.9 46.9 69% 30.14 1020.5
16 08:53 E 5 10.00 Fair CLR 55.9 46 70% 30.14 1020.7
16 07:53 E 5 10.00 Fair CLR 53.1 46 77% 30.14 1020.7
16 06:53 Vrbl 3 10.00 Fair CLR 50 44.1 80% 30.14 1020.7
16 05:53 E 5 10.00 Fair CLR 48 43 83% 47 30.14 1020.6
16 04:53 E 5 10.00 Fair CLR 50 44.1 80% 49 30.14 1020.5
16 03:53 E 8 10.00 Fair CLR 52 44.1 57 51.1 75% 30.14 1020.5
16 02:53 E 8 10.00 Fair CLR 53.1 45 74% 30.13 1020.4
16 01:53 Vrbl 7 10.00 Fair CLR 53.1 45 74% 30.13 1020.3
16 00:53 E 10 G 21 10.00 Fair CLR 54 46 75% 30.12 1019.9
15 23:53 E 10 10.00 Fair CLR 54 46 75% 30.11 1019.7
15 22:53 E 8 10.00 Fair CLR 54 46 75% 30.1 1019.2
15 21:53 E 13 G 25 10.00 Fair CLR 57 46 66.9 55.9 67% 30.09 1019.0
15 20:53 E 10 G 21 10.00 Fair CLR 59 46.9 64% 30.09 1018.8
15 19:53 E 10 G 20 10.00 Fair CLR 62.1 46.9 58% 30.08 1018.6
15 18:53 E 9 G 18 10.00 Fair CLR 64 46.9 54% 30.08 1018.5
15 17:53 E 8 G 18 10.00 Fair CLR 66 48 52% 30.07 1018.1
15 15:53 E 9 G 18 10.00 Fair CLR 66 48 66.9 55.9 52% 30.07 1018.4
15 14:53 E 10 G 21 10.00 Fair CLR 66 48 52% 30.07 1018.3
15 13:53 E 10 G 21 10.00 Fair CLR 64.9 48 54% 30.07 1018.1
15 12:53 E 10 G 20 10.00 Fair CLR 63 48 58% 30.06 1018.0
15 11:53 Vrbl 7 10.00 Fair CLR 60.1 46.9 62% 30.06 1018.0
15 10:53 E 10 10.00 Fair CLR 57.9 46 65% 30.07 1018.2
15 09:53 E 7 G 20 10.00 Fair CLR 57.9 46.9 59 41 67% 30.07 1018.3
15 07:53 Vrbl 6 10.00 Fair CLR 54 46 75% 30.08 1018.4
15 06:53 Calm 10.00 Fair CLR 45 42.1 90% 30.08 1018.6
15 05:53 Calm 10.00 Fair CLR 41 39 93% 30.08 1018.6
15 04:53 Calm 10.00 Fair CLR 41 39 93% 30.07 1018.3
15 03:53 Calm 10.00 Fair CLR 42.1 39.9 55.9 41 92% 30.07 1018.2
15 02:53 Calm 10.00 Fair CLR 42.1 39.9 92% 30.06 1017.9
15 01:53 Calm 10.00 Fair CLR 43 41 93% 30.06 1017.8
15 00:53 Calm 10.00 Fair CLR 45 42.1 90% 30.05 1017.5
14 23:53 Calm 10.00 Fair CLR 46.9 43 86% 30.05 1017.4
14 22:53 Calm 10.00 Fair CLR 52 42.1 69% 30.03 1017.0
14 21:53 Calm 10.00 Fair CLR 55.9 43 73 55.9 62% 30.02 1016.7
14 20:53 E 5 10.00 Fair CLR 59 42.1 54% 30.02 1016.5
14 19:53 E 3 10.00 Fair CLR 63 43 48% 30.01 1016.3
14 18:53 E 5 10.00 Fair CLR 70 48 46% 30.01 1016.2
14 17:53 Vrbl 6 10.00 Fair CLR 71.1 48 44% 30.01 1016.2
14 16:53 Calm 10.00 Fair CLR 73 48.9 43% 30.02 1016.6
14 15:53 W 8 10.00 Fair CLR 70 46.9 72 57 44% 30.03 1016.9
14 14:53 Vrbl 6 10.00 Fair CLR 69.1 46 44% 30.05 1017.4
14 13:53 Vrbl 7 10.00 Fair CLR 66 46 49% 30.06 1017.8
14 12:53 W 8 10.00 Fair CLR 64 44.1 48% 30.06 1018.0
14 11:53 Vrbl 7 G 16 10.00 Fair CLR 63 44.1 50% 30.07 1018.3
14 10:53 Vrbl 7 G 20 10.00 Fair CLR 60.1 43 53% 30.08 1018.6
14 09:53 Vrbl 7 10.00 Fair CLR 57 43 57 42.1 60% 30.1 1019.1
14 08:53 Vrbl 6 10.00 Fair CLR 53.1 43 69% 30.1 1019.4
14 07:53 Vrbl 6 10.00 Fair CLR 46.9 41 80% 45 30.12 1019.8
14 06:53 W 6 10.00 Fair CLR 43 39 86% 40 30.13 1020.1
14 05:53 W 6 10.00 Fair CLR 43 37.9 82% 40 30.13 1020.2
14 04:53 W 7 10.00 Fair CLR 42.1 37.9 85% 38 30.13 1020.3
14 03:53 W 6 10.00 Fair CLR 44.1 39 54 44.1 83% 41 30.13 1020.4
14 02:53 W 3 10.00 Fair CLR 46 41 83% 30.13 1020.4
14 01:53 Vrbl 5 10.00 Fair CLR 46.9 39.9 77% 45 30.14 1020.6
14 00:53 W 5 10.00 Fair CLR 46.9 39.9 77% 45 30.14 1020.6
13 23:53 W 5 10.00 Fair CLR 48 41 77% 47 30.14 1020.5
13 22:53 Vrbl 3 10.00 Fair CLR 51.1 41 69% 30.14 1020.5
13 21:53 Vrbl 5 10.00 Fair CLR 54 42.1 62.1 54 64% 30.14 1020.4
13 20:53 Vrbl 5 10.00 Fair CLR 55 41 59% 30.15 1020.8
13 19:53 Vrbl 7 10.00 Fair CLR 57 39 51% 30.15 1020.9
13 17:53 Vrbl 6 10.00 Fair CLR 60.1 39.9 48% 30.15 1021.1
13 16:53 Vrbl 5 G 17 10.00 Fair CLR 61 39.9 46% 30.17 1021.5
13 15:53 W 7 10.00 Fair CLR 59 39 62.1 53.1 48% 30.18 1022.0
13 14:53 Vrbl 6 10.00 Overcast FEW050 OVC110 61 39 44% 30.19 1022.2
13 13:53 Vrbl 7 10.00 Partly Cloudy FEW048 SCT100 60.1 39.9 48% 30.2 1022.6
13 12:53 Vrbl 6 10.00 Partly Cloudy FEW050 SCT110 57.9 39 50% 30.21 1023.0
13 11:53 Calm 10.00 Overcast BKN045 OVC050 57.9 41 53% 30.22 1023.4
Date Time (akdt) Wind (mph) Vis. (mi.) Weather Sky Cond. Air Dwpt Max. Min. Relative Humidity Wind Chill (°F) Heat Index (°F) altimeter (in) sea level (mb) 1 hr 3 hr 6 hr
6 hour
Temperature (ºF) Pressure Precipitation (in)